Location: Seattle
(47.6064°N, 122.3308°W)
Time: 00:18:16
(UTC-08:00)

A-11 Canister half - Pass Details

Date: 01 December 2020
Orbit: 1524 x 1684 km, 47.3° (Epoch: 27 January)

Event Time Altitude Azimuth Distance (km) Brightness Sun altitude
Rises 08:02:27 0° 267° (W) 4,934 11.2 2.6°
Reaches altitude 10° 08:05:38 10° 267° (W) 3,939 10.7 3.0°
Maximum altitude 08:15:48 89° 182° (S) 1,656 9.4 4.4°
Drops below altitude 10° 08:25:41 10° 92° (E) 3,833 12.0 5.6°
Sets 08:28:44 0° 92° (E) 4,797 12.5 6.0°
